Weather History for Grand Forks, ND

Change the Weather History Date:

Tuesday, May 7, 2013

  Actual Average Record
Temperature  
Mean Temperature 60 °F 52 °F  
Max Temperature 76 °F 65 °F 88 °F (1953)
Min Temperature 44 °F 38 °F 18 °F (1976)
Degree Days  
Heating Degree Days 5 14  
Month to date heating degree days 147 103  
Since 1 July heating degree days 9699 9181  
Cooling Degree Days 0 0  
Month to date cooling degree days 0 0  
Year to date cooling degree days 0 1  
Growing Degree Days 10 (Base 50)    
Moisture  
Dew Point 45 °F    
Average Humidity 61    
Maximum Humidity 89    
Minimum Humidity 33    
Precipitation  
Precipitation 0.00 in 0.07 in 0.58 in (1997)
Month to date precipitation 0.00 0.47  
Year to date precipitation 3.38 3.51  
Snow  
Snow 0.00 in 0.00 in - ()
Month to date snowfall 0.0 0.1  
Since 1 July snowfall 50.2 47.4  
Snow Depth 0.00 in    
Sea Level Pressure  
Sea Level Pressure 29.93 in    
Wind  
Wind Speed 8 mph (South)    
Max Wind Speed 20 mph    
Max Gust Speed 29 mph    
Visibility 10 miles    
Events      
T = Trace of Precipitation, MM = Missing Value Source: NWS Daily Summary

Daily Weather History Graph

Daily Weather History Graph

Search for Another Location

Airport:

Trip Planner

Search our weather history database for the weather conditions in past years. The results will help you decide how hot, cold, wet, or windy it might be!

Date:

Astronomy

May. 07, 2013 Rise Set
Actual Time 6:00 AM CDT 8:50 PM CDT
Civil Twilight 5:25 AM CDT 9:26 PM CDT
Nautical Twilight 4:39 AM CDT 10:12 PM CDT
Astronomical Twilight 3:45 AM CDT 11:07 PM CDT
Moon 4:45 AM CDT (5/7) 6:43 PM CDT (5/7)
Length of Visible Light 16h 01m
Length of Day
14h 49m
Waning Crescent, 5% of the Moon is Illuminated
May 7
Waning Crescent
May 9
New
May 17
First Quarter
May 24
Full
May 31
Last Quarter

Hourly Weather History & Observations

Time (CDT) Temp. Windchill Dew Point Humidity Pressure Visibility Wind Dir Wind Speed Gust Speed Precip Events Conditions
12:53 AM 48.9 °F - 44.1 °F 83% 29.99 in 10.0 mi South 6.9 mph - N/A   Clear
1:53 AM 46.9 °F - 43.0 °F 86% 29.99 in 10.0 mi South 6.9 mph - N/A   Clear
2:53 AM 46.9 °F - 43.0 °F 86% 29.99 in 10.0 mi South 6.9 mph - N/A   Clear
3:53 AM 46.9 °F - 43.0 °F 86% 29.98 in 10.0 mi South 3.5 mph - N/A   Clear
4:53 AM 46.9 °F - 43.0 °F 86% 29.98 in 10.0 mi Calm Calm - N/A   Clear
5:53 AM 46.0 °F - 43.0 °F 89% 29.98 in 10.0 mi Calm Calm - N/A   Partly Cloudy
6:53 AM 46.0 °F 43.9 °F 43.0 °F 89% 29.99 in 7.0 mi South 4.6 mph - N/A   Partly Cloudy
7:53 AM 52.0 °F - 48.0 °F 86% 29.99 in 10.0 mi South 8.1 mph - N/A   Partly Cloudy
8:53 AM 57.0 °F - 48.9 °F 74% 29.99 in 10.0 mi South 9.2 mph - N/A   Partly Cloudy
9:53 AM 62.1 °F - 48.9 °F 62% 29.98 in 10.0 mi South 10.4 mph - N/A   Partly Cloudy
10:53 AM 66.9 °F - 46.9 °F 49% 29.96 in 10.0 mi South 16.1 mph 23.0 mph N/A   Partly Cloudy
11:53 AM 69.1 °F - 46.0 °F 44% 29.95 in 10.0 mi South 15.0 mph 20.7 mph N/A   Partly Cloudy
12:53 PM 71.1 °F - 46.9 °F 42% 29.94 in 10.0 mi South 11.5 mph 21.9 mph N/A   Partly Cloudy
1:53 PM 73.0 °F - 46.9 °F 39% 29.91 in 10.0 mi South 12.7 mph 24.2 mph N/A   Partly Cloudy
2:53 PM 72.0 °F - 46.0 °F 40% 29.90 in 10.0 mi SSW 12.7 mph 17.3 mph N/A   Partly Cloudy
3:53 PM 73.9 °F - 45.0 °F 35% 29.88 in 10.0 mi SSW 12.7 mph 28.8 mph N/A   Scattered Clouds
4:53 PM 73.0 °F - 46.0 °F 38% 29.87 in 10.0 mi SSW 9.2 mph - N/A   Mostly Cloudy
5:53 PM 73.9 °F - 45.0 °F 35% 29.86 in 10.0 mi SSW 6.9 mph - N/A   Scattered Clouds
6:53 PM 73.9 °F - 45.0 °F 35% 29.85 in 10.0 mi SSW 8.1 mph - N/A   Scattered Clouds
7:53 PM 73.9 °F - 42.1 °F 32% 29.84 in 10.0 mi East 4.6 mph - N/A   Scattered Clouds
8:53 PM 69.1 °F - 43.0 °F 39% 29.84 in 10.0 mi ENE 8.1 mph - N/A   Scattered Clouds
9:53 PM 66.0 °F - 44.1 °F 45% 29.84 in 10.0 mi East 6.9 mph - N/A   Scattered Clouds
10:53 PM 61.0 °F - 45.0 °F 56% 29.85 in 10.0 mi SSE 4.6 mph - N/A   Partly Cloudy
11:53 PM 55.0 °F - 45.0 °F 69% 29.86 in 10.0 mi Calm Calm - N/A   Partly Cloudy